EW1976 Weather Reports


time (UTC)temp
F
wind
direction
speed
knots
gust
knots
rain 1hr
in
rain 24hr
in
rain mn
in
humidity
%
barometer
mb
20260505130104 52 240 2.6 4.3 0.00 0.00 0.00 89 1014.3
20260505124544 53 164 0.9 3.5 0.00 0.00 0.00 88 1014.0
20260505123043 53 195 1.7 3.5 0.00 0.00 0.00 88 1013.9
20260505121536 53 209 0.9 3.5 0.00 0.00 0.00 87 1013.7
20260505120031 53 195 1.7 3.5 0.00 0.00 0.00 87 1013.5
20260505114531 54 200 0.9 5.2 0.00 0.00 0.00 86 1013.4
20260505113029 54 160 0.0 6.1 0.00 0.00 0.00 85 1013.2
20260505111534 54 165 2.6 6.1 0.00 0.00 0.00 85 1013.0
20260505101517 55 136 0.9 2.6 0.00 0.00 0.00 81 1012.5
20260505100023 56 148 0.9 6.1 0.00 0.00 0.00 80 1012.4
20260505094516 56 214 0.0 3.5 0.00 0.00 0.00 79 1012.3
20260505093014 56 210 0.9 4.3 0.00 0.00 0.00 79 1012.3
20260505091513 55 201 0.0 2.6 0.00 0.00 0.00 79 1012.4
20260505090011 55 82 0.9 3.5 0.00 0.00 0.00 80 1012.1
20260505084514 55 200 0.0 1.7 0.00 0.00 0.00 80 1011.9
20260505083013 56 202 0.0 7.0 0.00 0.00 0.00 79 1011.7
20260505081507 56 171 0.9 4.3 0.00 0.00 0.00 78 1011.5
20260505080001 56 127 0.9 1.7 0.00 0.00 0.00 78 1011.3
20260505074559 57 160 0.9 2.6 0.00 0.00 0.00 77 1011.1
20260505073057 57 169 0.9 4.3 0.00 0.00 0.00 77 1010.9
20260505071607 57 182 0.9 2.6 0.00 0.00 0.00 77 1010.7
20260505070056 57 199 0.9 5.2 0.00 0.00 0.00 76 1010.5
20260505064555 58 196 0.9 3.5 0.00 0.00 0.00 76 1010.5
20260505063051 58 210 0.0 6.1 0.00 0.00 0.00 76 1010.4
20260505061556 58 175 0.0 3.5 0.00 0.00 0.00 75 1010.4
20260505060050 59 212 0.0 1.7 0.00 0.00 0.00 75 1010.3
20260505054555 59 197 0.9 4.3 0.00 0.00 0.00 74 1010.1
20260505053058 60 159 0.0 2.6 0.00 0.00 0.00 75 1010.1
20260505051549 61 144 0.9 2.6 0.00 0.00 0.00 75 1009.9
20260505041551 63 204 0.0 1.7 0.00 0.00 0.00 71 1009.4
20260505040046 64 184 0.0 1.7 0.00 0.00 0.00 70 1009.3
20260505034545 66 205 0.0 1.7 0.00 0.00 0.00 65 1009.2
20260505033047 67 224 0.0 0.9 0.00 0.00 0.00 63 1009.0
20260505031545 70 224 0.0 0.0 0.00 0.00 0.00 59 1008.9
20260505030044 72 224 0.0 0.9 0.00 0.00 0.00 56 1008.8
20260505024545 73 159 0.0 0.9 0.00 0.00 0.00 54 1008.9
20260505023047 73 131 0.0 0.9 0.00 0.00 0.00 58 1008.9
20260505021542 77 164 0.0 0.9 0.00 0.00 0.00 55 1009.0
20260505020040 76 164 0.0 0.9 0.00 0.00 0.00 57 1009.0
20260505014540 76 70 0.9 1.7 0.00 0.00 0.00 56 1009.1
20260505013040 78 165 0.9 1.7 0.00 0.00 0.00 53 1009.1
20260505011549 78 197 0.9 2.6 0.00 0.00 0.00 51 1009.0
20260505010040 79 187 0.9 3.5 0.00 0.00 0.00 50 1009.1
20260505004540 80 208 0.9 3.5 0.00 0.00 0.00 50 1009.1
20260505003035 80 197 0.9 4.3 0.00 0.00 0.00 50 1009.1
20260505001534 79 207 0.9 5.2 0.00 0.00 0.00 46 1009.2
20260505000034 79 234 1.7 6.1 0.00 0.00 0.00 46 1009.3
20260504234530 79 276 1.7 6.1 0.00 0.00 0.00 45 1009.4
20260504233030 78 192 2.6 7.8 0.00 0.00 0.00 45 1009.6
20260504231529 78 259 0.9 5.2 0.00 0.00 0.00 45 1009.6
20260504230028 78 224 2.6 4.3 0.00 0.00 0.00 44 1009.8
20260504224526 78 232 3.5 6.1 0.00 0.00 0.00 44 1010.0
20260504223025 78 260 0.9 7.8 0.00 0.00 0.00 48 1009.9
20260504221525 79 153 0.9 2.6 0.00 0.00 0.00 46 1010.1
20260504220025 78 214 1.7 5.2 0.00 0.00 0.00 50 1010.2
20260504214522 77 265 0.9 7.8 0.00 0.00 0.00 47 1010.2
20260504213023 78 191 1.7 5.2 0.00 0.00 0.00 49 1010.2
20260504211518 78 212 0.9 3.5 0.00 0.00 0.00 53 1010.4
20260504210018 76 234 0.0 5.2 0.00 0.00 0.00 53 1010.5
20260504204515 75 184 0.9 5.2 0.00 0.00 0.00 56 1010.6
20260504203014 75 279 1.7 5.2 0.00 0.00 0.00 57 1010.7
20260504201512 75 279 1.7 7.0 0.00 0.00 0.00 57 1010.7
20260504200018 74 277 2.6 7.8 0.00 0.00 0.00 57 1010.8
20260504194509 73 238 1.7 5.2 0.00 0.00 0.00 60 1010.9
20260504193008 73 233 2.6 6.1 0.00 0.00 0.00 59 1010.9
20260504191520 72 262 3.5 7.0 0.00 0.00 0.00 58 1010.8
20260504190010 73 268 1.7 6.1 0.00 0.00 0.00 62 1010.8
20260504184512 73 279 3.5 7.0 0.00 0.00 0.00 62 1010.9
20260504183007 73 245 0.9 6.1 0.00 0.00 0.00 63 1010.9
20260504181506 72 278 0.9 6.1 0.00 0.00 0.00 64 1010.9
20260504180005 73 303 0.9 4.3 0.00 0.00 0.00 63 1010.9
20260504174504 72 271 0.0 4.3 0.00 0.00 0.00 62 1010.9
20260504173004 73 286 0.9 3.5 0.00 0.00 0.00 55 1010.9
20260504171502 73 35 0.0 1.7 0.00 0.00 0.00 55 1011.1
20260504170109 73 318 0.9 2.6 0.00 0.00 0.00 59 1011.0